Regional Weather Roundup
Issued by NWS

Home | Current Version | Previous Version | Text Only | Print | Product List | Glossary Off
Versions: 1 2 3 4 5 6 7 8 9 10 11 12 13 14 15 16 17 18 19 20 21 22 23 24 25 26 27

000
ASUS45 KBOU 240606
RWRCO

WEATHER ROUNDUP FOR COLORADO
NATIONAL WEATHER SERVICE DENVER/BOULDER CO
1200 AM MDT THU APR 24 2014

NOTE: "FAIR" INDICATES FEW OR NO CLOUDS BELOW 12000 FEET WITH NO
SIGNIFICANT WEATHER AND/OR OBSTRUCTIONS TO VISIBILITY.

COZ001>005-013-030-031-240700-
...NORTHWEST COLORADO...

CITY           SKY/WX    TMP DP  RH WIND       PRES   REMARKS
CRAIG          CLEAR     28  16  60 CALM      30.08R
HAYDEN         CLEAR     30  14  51 W6        30.08R WCI  24
MEEKER         CLEAR     32  15  49 CALM      30.07R
MOUNT WERNER   MOCLDY    21  10  63 W22G29    30.04F WCI   5
STEAMBOAT SPGS PTCLDY    31  13  47 SW8       30.05R WCI  24
WALDEN         PTCLDY    27   9  46 W3        30.03R
$$

COZ006>008-011-240700-
...WEST CENTRAL VALLEYS...

CITY           SKY/WX    TMP DP  RH WIND       PRES   REMARKS
GRAND JUNCTION CLEAR     42  11  28 W14       30.03R
MONTROSE       CLEAR     37  14  38 SE7       30.07R
EAGLE          CLEAR     36  16  44 SE5       30.07R
RIFLE          CLEAR     42  12  29 NW12      30.05R
DELTA          NOT AVBL
NUCLA          NOT AVBL
$$

COZ017>023-064>068-240700-
...SOUTHWEST COLORADO...

CITY           SKY/WX    TMP DP  RH WIND       PRES   REMARKS
DURANGO        CLEAR     38  10  31 N9        30.00R
CORTEZ         CLEAR     35  13  40 CALM      30.04S
PAGOSA SPRINGS CLEAR     36  14  40 CALM      29.99R
TELLURIDE      PTCLDY    32   9  37 W5        30.09R WCI  27
WOLF CREEK PAS PTCLDY    19   9  63 W7        30.06R WCI  10
$$

COZ009-010-012-014-032>034-037-058>063-240700-
...CENTRAL COLORADO...

CITY           SKY/WX    TMP DP  RH WIND       PRES   REMARKS
ASPEN          PTCLDY    36  12  37 NW7       30.03R
BUENA VISTA    MOCLDY    38  11  34 NW12G18   29.97R
COPPER MTN     MOCLDY    19  14  79 W22G29    30.04R WCI   3
BERTHOUD PASS  FAIR       9   0  66 NW40G51   29.94F WCI -17
COTTONWOOD PAS PTCLDY    32  14  47 W17G30    29.98R WCI  21
GUNNISON       CLEAR     34   7  32 W8        30.05R WCI  27
KREMMLING      CLEAR     34   9  35 W9G17     30.06R WCI  26
LEADVILLE      MOCLDY    25  14  63 N8        30.02R WCI  16
MONARCH PASS   CLEAR     19  10  68 MISG      30.10R
SALIDA         PTCLDY    42  17  37 NW3       30.03R
SUNLIGHT       CLEAR     23  12  63 SW5       30.09S WCI  17
WILKERSON PASS MOCLDY    23  16  74 NW9G21    30.02R WCI  13
$$

COZ069>075-240700-
...SAN LUIS VALLEY/SANGRE DE CRISTO MOUNTAINS...

CITY           SKY/WX    TMP DP  RH WIND       PRES   REMARKS
ALAMOSA        CLEAR     39  20  46 N16       29.96R
LA VETA PASS   CLOUDY    30  16  55 NW9G22    30.00R WCI  22
SAGUACHE       PTCLDY    37   9  30 NW21G26   29.98R
$$

COZ035-036-038>040-240700-
...NORTHERN COLORADO FRONT RANGE...

CITY           SKY/WX    TMP DP  RH WIND       PRES   REMARKS
DENVER INTL AP CLOUDY    42  37  82 NE9       29.91S
DMNS CITY PARK   N/A     41  38  88 SW7       29.93F
AURORA         MOCLDY    37  36  93 E8        29.94R
FRONT RANGE AP NOT AVBL
ERIE MUNI ARPT CLOUDY    44  40  85 SW9       29.92R
BOULDER MUN AP CLOUDY    43  39  87 SE7       29.91R
CENTENNIAL     CLOUDY    38  29  70 NE6       29.95R
BROOMFIELD     CLOUDY    41  37  87 S12       29.94R
FORT COLLINS   CLOUDY    46  18  31 NW15      29.94R
LONGMONT       NOT AVBL
$$

COZ041-046-047-076>085-087-088-240700-
...PIKES PEAK/PALMER DIVIDE AND SOUTHERN FOOTHILLS...

CITY           SKY/WX    TMP DP  RH WIND       PRES   REMARKS
COLO. SPRINGS  MOCLDY    39  30  70 N18G29    29.94R
A. F. ACADEMY  NOT AVBL
ELLICOTT       NOT AVBL
FALCON         MOCLDY    33  32  94 N20G28    29.94R WCI  22
FORT CARSON    CLOUDY    41  33  72 N21G28    29.92R
LIMON          CLOUDY    36  34  92 N22G28    29.90S
MONUMENT HILL  MIX PCPN  32  32 100 NE15G21   29.94R VSB 1/2 WCI  22
TRINIDAD       LGT RAIN  44  36  73 N22G31    29.91R
$$

COZ042>045-048>051-090-091-240700-
...NORTHEAST COLORADO...

CITY           SKY/WX    TMP DP  RH WIND       PRES   REMARKS
GREELEY ARPT   CLOUDY    48   9  20 NW23G31   29.91R
AKRON          CLOUDY    47  21  35 NW18G32   29.86F
BURLINGTON     CLOUDY    50  26  39 N21G37    29.85R
WRAY           CLOUDY    55  21  26 NW28G37   29.86S
STERLING       NOT AVBL
HOLYOKE        NOT AVBL
FORT MORGAN    NOT AVBL
$$

COZ086-089-092>099-240700-
...SOUTHEAST COLORADO...

CITY           SKY/WX    TMP DP  RH WIND       PRES   REMARKS
PUEBLO         CLOUDY    45  35  68 N30G40    29.89R
LA JUNTA       LGT RAIN  45  38  76 N33G41    29.92R
LAMAR          CLOUDY    51  32  48 N29G51    29.82R HAZE
SPRINGFIELD      N/A     47  36  65 N32G40    29.82R
$$



USA.gov is the U.S. government's official web portal to all federal, state and local government web resources and services.